Location: Paris
(48.6709°N, 2.3750°E)
Time: 17:27:01
(UTC+02:00)

STARS - Pass Details

Date: 07 July 2022
Orbit: 620 x 637 km, 98.2° (Epoch: 06 August)

Event Time Altitude Azimuth Distance (km) Brightness Sun altitude
Rises 23:23:58 0° 29° (NNE) 2,925 ? -11.2°
Reaches altitude 10° 23:27:00 10° 52° (NE) 2,008 ? -11.5°
Maximum altitude 23:29:39 16° 90° (E) 1,655 ? -11.7°
Enters shadow 23:31:19 13° 115° (ESE) 1,795 ? -11.9°
